EW3232 Weather Reports


time (UTC)temp
C
wind
direction
speed
KPH
gust
KPH
rain 1hr
cm
rain 24hr
cm
rain mn
cm
humidity
%
barometer
mb
20260510113015 19 161 4.8 14.5 0.00 3.20 0.03 49 1011.9
20260510111626 18 123 11.3 20.9 0.00 3.20 0.03 52 1012.0
20260510110057 19 110 17.7 25.7 0.00 3.20 0.03 51 1012.1
20260510104649 19 89 11.3 22.5 0.00 3.76 0.03 52 1012.1
20260510103017 18 153 11.3 17.7 0.00 3.76 0.03 53 1012.3
20260510101611 18 176 8.0 20.9 0.00 3.76 0.03 54 1012.5
20260510100003 18 132 11.3 20.9 0.00 3.76 0.03 56 1012.6
20260510094517 17 168 16.1 25.7 0.00 3.76 0.03 56 1012.6
20260510093029 17 123 16.1 20.9 0.00 3.76 0.03 57 1012.6
20260510091555 17 121 16.1 25.7 0.00 3.76 0.03 62 1012.5
20260510090033 17 140 9.7 22.5 0.00 3.76 0.03 61 1012.5
20260510084556 17 123 12.9 19.3 0.00 3.76 0.03 57 1012.4
20260510083114 17 111 6.4 17.7 0.00 3.76 0.03 63 1012.3
20260510081606 17 158 4.8 9.7 0.00 3.76 0.03 58 1012.4
20260510080155 16 163 4.8 9.7 0.00 3.76 0.03 60 1012.7
20260510074655 16 187 3.2 6.4 0.00 3.76 0.03 68 1012.6
20260510073108 15 182 0.0 6.4 0.00 3.76 0.03 69 1012.5
20260510071628 15 230 4.8 9.7 0.03 3.76 0.03 67 1012.5
20260510070109 13 227 8.0 11.3 0.03 3.76 0.03 74 1012.2
20260510064613 13 136 0.0 4.8 0.03 3.76 0.03 81 1012.2
20260510063129 11 347 0.0 3.2 0.03 3.76 0.03 88 1012.0
20260510061533 10 347 1.6 3.2 0.00 3.73 0.00 86 1012.2
20260510060151 10 347 0.0 3.2 0.00 3.73 0.00 91 1012.2
20260510054651 8 324 0.0 3.2 0.00 3.73 0.00 92 1011.9
20260510053157 8 356 1.6 3.2 0.00 3.73 0.00 92 1011.8
20260510051505 8 121 0.0 3.2 0.00 3.73 0.00 92 1011.9
20260510050040 8 284 1.6 3.2 0.00 3.73 0.00 92 1011.7
20260510044604 8 284 0.0 3.2 0.00 3.73 0.00 92 1011.7
20260510043117 8 284 0.0 8.0 0.00 3.73 0.00 92 1011.7
20260510041637 8 266 4.8 6.4 0.00 3.73 0.00 93 1011.5
20260510040017 8 264 1.6 3.2 0.00 3.73 0.00 94 1011.4
20260510034606 8 264 0.0 3.2 0.00 3.73 0.00 94 1011.5
20260510033122 8 281 0.0 6.4 0.00 3.73 0.00 94 1011.4
20260510031631 8 251 1.6 8.0 0.00 3.73 0.00 95 1011.5
20260510030119 8 267 3.2 6.4 0.00 3.73 0.00 94 1011.5
20260510024632 8 262 1.6 6.4 0.00 3.73 0.00 94 1011.7
20260510023134 8 342 1.6 6.4 0.00 3.73 0.00 94 1011.7
20260510021647 8 253 0.0 6.4 0.00 3.73 0.00 94 1011.8
20260510020151 8 277 0.0 3.2 0.00 3.73 0.00 94 1011.9
20260510014624 8 280 0.0 4.8 0.00 3.73 0.00 94 1011.8
20260510013103 9 268 3.2 4.8 0.00 3.73 0.00 94 1011.9
20260510011622 9 268 0.0 6.4 0.00 3.73 0.00 94 1012.0
20260510010108 9 263 4.8 9.7 0.00 3.73 0.00 94 1012.1
20260510004622 9 187 1.6 3.2 0.00 3.73 0.00 93 1012.4
20260510003126 9 291 3.2 4.8 0.00 3.73 0.00 93 1012.4
20260510000156 10 266 0.0 4.8 0.00 3.73 0.00 93 1012.5
20260509234556 10 262 1.6 3.2 0.00 3.73 0.00 92 1012.6
20260509233100 10 262 0.0 4.8 0.00 3.73 0.00 92 1012.7
20260509231630 10 271 1.6 3.2 0.00 3.73 0.00 92 1012.7
20260509230012 10 271 0.0 4.8 0.00 3.73 0.00 91 1012.8
20260509224515 11 185 1.6 6.4 0.00 3.73 0.00 91 1012.8
20260509223108 11 264 3.2 12.9 0.00 3.73 0.00 91 1012.9
20260509221629 11 248 4.8 11.3 0.00 3.73 0.00 91 1012.9
20260509220004 11 221 3.2 4.8 0.00 3.73 3.73 91 1012.9
20260509214624 11 247 3.2 11.3 0.00 3.73 3.73 91 1012.9
20260509211518 11 261 6.4 12.9 0.00 3.73 3.73 94 1013.1
20260509210024 11 215 0.0 3.2 0.00 3.73 3.73 93 1013.2
20260509204549 11 214 3.2 6.4 0.00 3.73 3.73 93 1013.1
20260509201519 10 256 3.2 6.4 0.00 3.73 3.73 93 1012.7
20260509194510 11 276 3.2 6.4 0.00 3.73 3.73 92 1012.6
20260509193031 11 358 1.6 9.7 0.00 3.73 3.73 92 1012.0
20260509191555 11 306 0.0 3.2 0.00 3.73 3.73 91 1011.9
20260509190111 12 281 1.6 4.8 0.00 3.73 3.73 91 1011.9
20260509184635 13 21 0.0 6.4 0.00 3.73 3.73 90 1011.5
20260509183124 13 17 6.4 8.0 0.00 3.73 3.73 89 1011.3
20260509181643 13 35 4.8 9.7 0.00 3.73 3.73 89 1011.3
20260509180151 13 526.3 410.4 0.00 3.73 3.73 88 1011.1
20260509174537 13 87 1.6 3.2 0.00 3.73 3.73 87 1011.2
20260509173101 14 29 3.2 8.0 0.00 3.73 3.73 86 1010.9
20260509171658 14 68 8.0 14.5 0.00 3.73 3.73 86 1010.8
20260509170128 15 48 3.2 11.3 0.00 3.73 3.73 80 1010.6
20260509164656 15 29 4.8 9.7 0.00 3.73 3.73 80 1010.6
20260509163011 15 342 1.6 8.0 0.00 3.73 3.73 81 1010.6
20260509161529 14 65 0.0 4.8 0.00 3.73 3.73 82 1010.5
20260509160006 13 264 4.8 9.7 0.00 3.73 3.73 85 1010.7
20260509154542 13 15 1.6 11.3 0.00 3.73 3.73 88 1010.6
20260509153103 13 239 4.8 6.4 0.05 3.73 3.73 89 1010.6
20260509151620 13 342 0.0 4.8 0.10 3.73 3.73 91 1010.4
20260509150059 12 291 0.0 6.4 0.33 3.73 3.73 92 1010.4
20260509144603 12 282 4.8 25.7 0.79 3.73 3.73 93 1010.6
20260509143104 12 26 8.0 17.7 1.09 3.71 3.71 92 1011.7
20260509141540 12 40 1.6 4.8 1.14 3.63 3.63 93 1012.2
20260509140022 12 276 1.6 12.9 0.94 3.40 3.40 93 1012.6
20260509134518 12 266 6.4 12.9 0.53 2.92 2.92 93 1012.7
20260509133010 12 244 3.2 12.9 0.28 2.62 2.62 92 1012.5
20260509131511 12 271 6.4 19.3 0.36 2.49 2.49 91 1012.2
20260509124656 13 193 1.6 4.8 0.91 2.39 2.39 93 1011.3
20260509123102 13 330 0.0 6.4 1.30 2.34 2.34 93 1011.1
20260509121612 12 127 3.2 8.0 1.24 2.13 2.13 91 1011.2
20260509120007 12 328 3.2 14.5 1.37 1.96 1.96 88 1011.3